| time (UTC) | temp F | wind direction | speed MPH | gust MPH | rain 1hr in | rain 24hr in | rain mn in | humidity % | barometer mb |
| 20260504033022 | 53 | 218 | 5.0 | 11.0 | 0.00 | 0.00 | 0.00 | 81 | 1009.5 |
| 20260504031615 | 54 | 90 | 2.0 | 18.0 | 0.00 | 0.00 | 0.00 | 80 | 1009.4 |
| 20260504030036 | 54 | 213 | 9.0 | 18.0 | 0.00 | 0.00 | 0.00 | 78 | 1009.1 |
| 20260504024626 | 54 | 211 | 11.0 | 19.0 | 0.00 | 0.00 | 0.00 | 76 | 1009.1 |
| 20260504023048 | 55 | 219 | 9.0 | 17.0 | 0.00 | 0.00 | 0.00 | 75 | 1008.8 |
| 20260504021506 | 56 | 221 | 12.0 | 23.0 | 0.00 | 0.00 | 0.00 | 75 | 1008.6 |
| 20260504020142 | 56 | 238 | 12.0 | 21.0 | 0.00 | 0.00 | 0.00 | 75 | 1008.6 |
| 20260504014530 | 57 | 259 | 12.0 | 26.0 | 0.00 | 0.00 | 0.00 | 72 | 1008.5 |
| 20260504013120 | 58 | 275 | 11.0 | 21.0 | 0.00 | 0.00 | 0.00 | 72 | 1008.7 |
| 20260504011531 | 59 | 256 | 11.0 | 24.0 | 0.00 | 0.00 | 0.00 | 72 | 1008.6 |
| 20260504010126 | 59 | 272 | 15.0 | 24.0 | 0.00 | 0.00 | 0.00 | 70 | 1008.7 |
| 20260504004616 | 60 | 203 | 11.0 | 20.0 | 0.00 | 0.00 | 0.00 | 70 | 1008.6 |
| 20260504003006 | 60 | 238 | 11.0 | 21.0 | 0.00 | 0.00 | 0.00 | 69 | 1008.5 |
| 20260504001621 | 60 | 259 | 12.0 | 19.0 | 0.00 | 0.00 | 0.00 | 70 | 1008.5 |
| 20260504000020 | 60 | 215 | 12.0 | 19.0 | 0.00 | 0.00 | 0.00 | 69 | 1008.4 |
| 20260503234613 | 60 | 234 | 12.0 | 20.0 | 0.00 | 0.00 | 0.00 | 69 | 1008.5 |
| 20260503233038 | 60 | 208 | 8.0 | 17.0 | 0.00 | 0.00 | 0.00 | 72 | 1008.5 |
| 20260503231627 | 59 | 207 | 12.0 | 18.0 | 0.00 | 0.00 | 0.00 | 72 | 1008.6 |
| 20260503230105 | 58 | 263 | 9.0 | 14.0 | 0.00 | 0.00 | 0.00 | 73 | 1008.7 |
| 20260503224633 | 59 | 207 | 10.0 | 18.0 | 0.00 | 0.00 | 0.00 | 73 | 1009.1 |
| 20260503223056 | 59 | 220 | 12.0 | 21.0 | 0.00 | 0.00 | 0.00 | 72 | 1008.9 |
| 20260503221515 | 59 | 207 | 9.0 | 19.0 | 0.00 | 0.00 | 0.00 | 74 | 1008.9 |
| 20260503220115 | 60 | 260 | 12.0 | 21.0 | 0.00 | 0.00 | 0.00 | 72 | 1008.9 |
| 20260503214527 | 60 | 269 | 11.0 | 23.0 | 0.00 | 0.00 | 0.00 | 73 | 1008.7 |
| 20260503213123 | 61 | 236 | 13.0 | 21.0 | 0.00 | 0.00 | 0.00 | 72 | 1008.7 |
| 20260503211539 | 61 | 194 | 12.0 | 19.0 | 0.00 | 0.00 | 0.00 | 71 | 1008.7 |
| 20260503210133 | 61 | 222 | 13.0 | 19.0 | 0.00 | 0.00 | 0.00 | 73 | 1008.7 |
| 20260503204554 | 59 | 246 | 11.0 | 19.0 | 0.00 | 0.00 | 0.00 | 74 | 1008.9 |
| 20260503203035 | 59 | 260 | 8.0 | 12.0 | 0.00 | 0.00 | 0.00 | 75 | 1009.1 |
| 20260503201605 | 59 | 218 | 8.0 | 14.0 | 0.00 | 0.00 | 0.00 | 75 | 1009.1 |
| 20260503200023 | 58 | 243 | 3.0 | 10.0 | 0.00 | 0.00 | 0.00 | 76 | 1009.3 |
| 20260503194617 | 59 | 165 | 6.0 | 12.0 | 0.00 | 0.00 | 0.00 | 74 | 1009.2 |
| 20260503193040 | 59 | 225 | 2.0 | 9.0 | 0.00 | 0.00 | 0.00 | 74 | 1009.3 |
| 20260503191631 | 59 | 178 | 7.0 | 12.0 | 0.00 | 0.00 | 0.00 | 74 | 1009.3 |
| 20260503190058 | 59 | 196 | 7.0 | 12.0 | 0.00 | 0.00 | 0.00 | 72 | 1009.3 |
| 20260503184507 | 59 | 198 | 4.0 | 10.0 | 0.00 | 0.00 | 0.00 | 72 | 1009.2 |
| 20260503183104 | 59 | 131 | 3.0 | 12.0 | 0.00 | 0.00 | 0.00 | 76 | 1009.2 |
| 20260503181521 | 59 | 306 | 5.0 | 11.0 | 0.00 | 0.00 | 0.00 | 74 | 1009.2 |
| 20260503180118 | 60 | 194 | 5.0 | 9.0 | 0.00 | 0.00 | 0.00 | 72 | 1009.1 |
| 20260503174535 | 60 | 290 | 4.0 | 9.0 | 0.00 | 0.00 | 0.00 | 76 | 1009.1 |
| 20260503173132 | 57 | 196 | 1.0 | 8.0 | 0.00 | 0.00 | 0.00 | 81 | 1009.1 |
| 20260503171545 | 56 | 196 | 4.0 | 10.0 | 0.00 | 0.00 | 0.00 | 80 | 1009.2 |
| 20260503140114 | 52 | 146 | 1.0 | 3.0 | 0.00 | 0.00 | 0.00 | 90 | 1008.2 |
| 20260503100120 | 53 | 101 | 0.0 | 2.0 | 0.00 | 0.00 | 0.00 | 85 | 1007.5 |
| 20260503081619 | 53 | 194 | 1.0 | 3.0 | 0.00 | 0.00 | 0.00 | 87 | 1008.4 |
| 20260503071501 | 52 | 173 | 0.0 | 1.0 | 0.00 | 0.00 | 0.00 | 88 | 1008.5 |
| 20260503060119 | 53 | 88 | 0.0 | 3.0 | 0.00 | 0.00 | 0.00 | 84 | 1008.6 |
| 20260503054551 | 53 | 89 | 2.0 | 3.0 | 0.00 | 0.00 | 0.00 | 84 | 1008.7 |
| 20260503053128 | 53 | 128 | 0.0 | 0.0 | 0.00 | 0.00 | 0.00 | 84 | 1008.8 |
| 20260503051547 | 53 | 127 | 1.0 | 3.0 | 0.00 | 0.00 | 0.00 | 83 | 1008.8 |
| 20260503050003 | 54 | 315 | 3.0 | 7.0 | 0.00 | 0.00 | 0.00 | 82 | 1008.7 |
| 20260503044558 | 54 | 262 | 2.0 | 6.0 | 0.00 | 0.00 | 0.00 | 82 | 1008.7 |
| 20260503043025 | 54 | 178 | 0.0 | 2.0 | 0.00 | 0.00 | 0.00 | 83 | 1008.6 |
| 20260503041618 | 54 | 207 | 0.0 | 2.0 | 0.00 | 0.00 | 0.00 | 82 | 1008.5 |
| 20260503040038 | 54 | 207 | 1.0 | 2.0 | 0.00 | 0.00 | 0.00 | 82 | 1008.2 |
| 20260503034627 | 55 | 207 | 0.0 | 3.0 | 0.00 | 0.00 | 0.00 | 81 | 1008.1 |